STARLINK-32682 (62196 NORAD) Tracking and Keplerian Element Data

This shows tracking and keplerian element data for the satellite.

Feedback or suggestion? Click here.




ElementValue
Catalog62196
NameSTARLINK-32682
Epoch Orbit595
Epoch Day34.83335648
Epoch Year2025
RAAN347.0905
Inclination42.9997
Eccentricity0.0001731
Argument of Perigee252.0504
Mean Anonmoly120.6889
Mean Motion15.7157104
Decay Rate-0.00928841
L11 62196U 24229E 25034.83335648 -.00928841 00000+0 -77056-2 0 9997
L22 62196 42.9997 347.0905 0001731 252.0504 120.6889 15.71571040 5958



Live tracking and technical data element details for STARLINK-32682 (NORAD 62196). STARLINK-32682 can be tracked NOW for your location showing map with azimuth and elevation plus other details from your city location.







IsCatalogInMostPopularTable: catalog: 62196, numindb: 14
Update: records affected: 1



GetName: 62196 STARLINK-32682

Hit Count: updated at: Mon, 19 May 2025 03:17:50 GMT